Location: Asheville, NC
(35.6000°N, 82.5500°W)
Time: 17:27:50

Vanguard 2 Rocket - Pass Details

Date: 15 March 2018
Orbit: 554 x 3327 km, 32.9° (Epoch: 18 March)

Event Time Altitude Azimuth Distance (km) Brightness Sun altitude
Rises 23:18:35 0° 271° (W) 3,455 10.4 -43.1°
Reaches altitude 10° 23:21:01 10° 259° (W) 2,773 9.7 -43.5°
Enters shadow 23:21:51 14° 253° (WSW) 2,581 9.4 -43.6°
Maximum altitude 23:26:49 29° 200° (SSW) 2,271 - -44.4°
Drops below altitude 10° 23:35:53 10° 146° (SSE) 4,435 - -45.8°
Sets 23:41:02 0° 138° (SE) 5,945 - -46.5°
